Miscellaneous Local Product
Issued by NWS Hastings, NE

Home | Current Version | Previous Version | Graphics & Text | Print | Product List | Glossary On
Versions: 1 2 3 4 5 6 7 8 9 10 11 12 13 14 15 16 17 18 19 20 21 22 23 24 25 26 27 28 29 30 31 32 33 34 35 36 37 38 39 40 41 42 43 44 45 46 47 48 49 50
000
AXUS43 KGID 241102
MISGRI

GID CWA HOURLY WEATHER ROUNDUP
NATIONAL WEATHER SERVICE HASTINGS NE
600 AM CDT TUE APR 24 2018

NOTE: "FAIR" INDICATES FEW OR NO CLOUDS BELOW 12,000 FEET WITH NO
SIGNIFICANT WEATHER AND/OR OBSTRUCTIONS TO VISIBILITY.

...SOUTH CENTRAL NEBRASKA...

CITY           SKY/WX    TMP DP  RH WIND       PRES   REMARKS
GRAND ISLAND   MOCLDY    45  40  82 N3        30.13R
KEARNEY        CLOUDY    46  41  82 NW6       30.15R
HASTINGS       CLOUDY    45  36  70 CALM      30.12R
ORD            CLOUDY    50  44  80 N9        30.14R
YORK             N/A     45  32  61 CALM      30.12R
AURORA         MOCLDY    45  35  68 CALM      30.12R
LEXINGTON      LGT RAIN  51  46  83 W16G22    30.18R
HOLDREGE       MOCLDY    47  41  78 CALM      30.15R
HEBRON         PTCLDY    39  35  84 CALM      30.11S

...NEBRASKA PANHANDLE...

CITY           SKY/WX    TMP DP  RH WIND       PRES   REMARKS
CHADRON        CLOUDY    38  33  82 NW12      30.35R WCI  30
ALLIANCE       CLOUDY    36  33  89 NW21      30.31R WCI  25
SCOTTSBLUFF    CLOUDY    37  32  82 NW18      30.35S WCI  27
SIDNEY         CLOUDY    35  32  88 N23G31    30.31R WCI  23

...WESTERN AND NORTH CENTRAL NEBRASKA...

CITY           SKY/WX    TMP DP  RH WIND       PRES   REMARKS
VALENTINE      CLOUDY    42  38  85 W14G25    30.22R
AINSWORTH      CLOUDY    41  40  95 NW14G23   30.20R
ONEILL         CLOUDY    51  48  89 NW16      30.16R
BROKEN BOW     CLOUDY    47  42  83 NW20G28   30.17R
IMPERIAL       LGT RAIN  40  39  97 NW21G30   30.25R WCI  30
NORTH PLATTE   LGT RAIN  45  39  79 N15G28    30.22R
MCCOOK         CLOUDY    46  41  82 NW22G29   30.21R

...EASTERN NEBRASKA...

CITY           SKY/WX    TMP DP  RH WIND       PRES   REMARKS
NORFOLK        PTCLDY    44  39  82 SE5       30.10F
SO SIOUX CITY  CLEAR     40  36  86 E5        30.11F
TEKAMAH        CLEAR     37  35  92 NW6       30.12S WCI  32
COLUMBUS       CLEAR     43  35  73 CALM      30.13R
ALBION         CLOUDY    45  39  79 CALM      30.13R
OMAHA EPPLEY   PTCLDY    38  34  85 N8        30.11S WCI  32
MILLARD        CLEAR     45  38  76 CALM      30.11S
LINCOLN        PTCLDY    40  32  73 N6        30.13R
NEBRASKA CITY  CLEAR     47  32  56 NE3       30.10S
BEATRICE       CLEAR     38  33  81 CALM      30.11S
FALLS CITY     CLEAR     43  31  62 NW3       30.10S

...NORTHERN KANSAS...

CITY           SKY/WX    TMP DP  RH WIND       PRES   REMARKS
GOODLAND       CLOUDY    40  39  97 N20G29    30.23R WCI  30
HILL CITY      CLOUDY    49  44  83 NW8       30.16R
NORTON         CLOUDY    52  43  71 W10       30.16R
PHILLIPSBURG   MOCLDY    45  39  81 W7        30.15R
BELOIT         CLEAR     36  32  87 CALM      30.10S
HAYS           CLEAR     44  40  85 N6        30.13R
RUSSELL        CLEAR     42  40  92 W8        30.10S
CONCORDIA      PTCLDY    49  32  52 CALM      30.10S
SALINA         CLEAR     47  40  76 CALM      30.11S
TOPEKA         CLEAR     42  39  89 CALM      30.10R



USA.gov is the U.S. government's official web portal to all federal, state and local government web resources and services.